This is the latest recevied weather packets stored in our database for station/object OK1FET-5. If no packets are shown the sender has not sent any weather packets the latest 10 day(s).
| Time | Temp. | Humidity | Pressure | Rain* | Wind** | Luminosity | Snow |
|---|---|---|---|---|---|---|---|
| 1776920049 | 5° C | 74% | 1024.7 hPa | - | - | - | - |
| 1776919756 | 4.44° C | 74% | 1024.7 hPa | - | - | - | - |
| 1776919462 | 3.89° C | 77% | 1024.6 hPa | - | - | - | - |
| 1776918874 | 3.89° C | 76% | 1024.8 hPa | - | - | - | - |
| 1776918580 | 3.89° C | 76% | 1024.8 hPa | - | - | - | - |
| 1776918286 | 3.89° C | 75% | 1024.7 hPa | - | - | - | - |
| 1776917699 | 3.33° C | 76% | 1024.6 hPa | - | - | - | - |
| 1776917405 | 3.33° C | 76% | 1024.6 hPa | - | - | - | - |
| 1776917112 | 3.33° C | 75% | 1024.6 hPa | - | - | - | - |
| 1776916818 | 3.33° C | 74% | 1024.7 hPa | - | - | - | - |
| 1776916524 | 3.33° C | 74% | 1024.7 hPa | - | - | - | - |
| 1776916230 | 2.78° C | 74% | 1024.8 hPa | - | - | - | - |
| 1776915937 | 2.78° C | 73% | 1024.7 hPa | - | - | - | - |
| 1776915643 | 2.78° C | 72% | 1024.7 hPa | - | - | - | - |
| 1776915349 | 2.78° C | 74% | 1024.8 hPa | - | - | - | - |
| 1776915055 | 2.78° C | 75% | 1024.7 hPa | - | - | - | - |
| 1776914762 | 2.78° C | 70% | 1024.7 hPa | - | - | - | - |
| 1776914468 | 2.78° C | 73% | 1024.7 hPa | - | - | - | - |
| 1776914174 | 2.78° C | 71% | 1024.7 hPa | - | - | - | - |
| 1776913881 | 2.78° C | 72% | 1024.8 hPa | - | - | - | - |
| 1776913587 | 2.78° C | 72% | 1024.8 hPa | - | - | - | - |
| 1776913293 | 2.78° C | 74% | 1024.8 hPa | - | - | - | - |
| 1776912999 | 2.78° C | 73% | 1024.9 hPa | - | - | - | - |
| 1776912706 | 2.78° C | 74% | 1024.8 hPa | - | - | - | - |
| 1776912412 | 2.78° C | 74% | 1024.8 hPa | - | - | - | - |
* Rain since midnight (hover to see other rain measurements)
** Current wind speed in m/s (hover to see current wind gust speed)